Location: Unspecified
(0.0000°N, 0.0000°E)
Time: 16:41:20
(UTC+00:00)

N. Korean satellite - Pass Details

Date: 22 August 2017
Orbit: 461 x 513 km, 97.2° (Epoch: 17 December)

Event Time Altitude Azimuth Distance (km) Brightness Sun altitude
Rises 18:47:25 0° 180° (S) 2,499 10.1 -10.9°
Reaches altitude 10° 18:49:31 10° 186° (S) 1,628 9.2 -11.4°
Maximum altitude 18:52:51 44° 259° (W) 669 7.8 -12.3°
Drops below altitude 10° 18:56:14 10° 332° (NNW) 1,646 9.8 -13.1°
Sets 18:58:22 0° 339° (NNW) 2,531 10.7 -13.6°
